Location: Monfort
(47.1967°N, 0.2115°W)
Time: 09:09:28
(UTC+00:00)

FALCON 9 DEB - Pass Details

Date: 24 October 2020
Orbit: 427 x 438 km, 53.0° (Epoch: 27 November)

Event Time Altitude Azimuth Distance (km) Brightness Sun altitude
Rises 18:44:54 0° 286° (WNW) 2,397 8.4 -19.0°
Reaches altitude 10° 18:47:11 10° 298° (WNW) 1,528 6.8 -19.4°
Maximum altitude 18:50:15 29° 1° (N) 810 4.5 -19.9°
Enters shadow 18:50:25 29° 8° (N) 813 4.4 -19.9°
